GW7653 Weather Reports


time (UTC)temp
F
wind
direction
speed
knots
gust
knots
rain 1hr
in
rain 24hr
in
rain mn
in
humidity
%
barometer
mb
20260906125119 79 261 4.3 7.0 0.00 0.00 0.00 55 1014.2
20260906124619 79 251 7.8 12.2 0.00 0.00 0.00 54 1013.9
20260906124118 80 258 6.1 7.8 0.00 0.00 0.00 54 1013.9
20260906123618 80 283 5.2 8.7 0.00 0.00 0.00 53 1014.2
20260906123118 81 261 11.3 15.6 0.00 0.00 0.00 52 1013.9
20260906122618 81 163 4.3 6.1 0.00 0.00 0.00 52 1013.9
20260906122118 80 302 6.1 7.8 0.00 0.00 0.00 53 1013.9
20260906121618 81 293 7.8 13.9 0.00 0.00 0.00 53 1014.2
20260906121118 81 307 4.3 7.8 0.00 0.00 0.00 52 1014.2
20260906120618 81 305 10.4 13.9 0.00 0.00 0.00 51 1013.9
20260906120118 81 274 5.2 8.7 0.00 0.00 0.00 50 1014.2
20260906115618 82 288 6.1 9.6 0.00 0.00 0.00 50 1014.2
20260906115118 81 241 10.4 11.3 0.00 0.00 0.00 50 1013.9
20260906114619 81 291 7.8 8.7 0.00 0.00 0.00 49 1014.2
20260906114118 82 258 10.4 17.4 0.00 0.00 0.00 48 1014.2
20260906113619 81 313 8.7 17.4 0.00 0.00 0.00 46 1014.2
20260906113118 82 277 12.2 18.2 0.00 0.00 0.00 46 1014.6
20260906112622 81 234 4.3 6.1 0.00 0.00 0.00 46 1014.2
20260906112118 82 321 6.1 8.7 0.00 0.00 0.00 44 1014.6
20260906111618 82 271 6.1 9.6 0.00 0.00 0.00 45 1014.6
20260906111118 82 237 8.7 11.3 0.00 0.00 0.00 44 1014.2
20260906110618 82 251 7.0 8.7 0.00 0.00 0.00 43 1014.2
20260906110118 82 309 8.7 11.3 0.00 0.00 0.00 42 1014.2
20260906105618 82 249 2.6 4.3 0.00 0.00 0.00 41 1014.6
20260906105118 83 281 5.2 8.7 0.00 0.00 0.00 41 1014.6
20260906104618 82 282 5.2 7.0 0.00 0.00 0.00 42 1014.2
20260906104118 82 271 10.4 12.2 0.00 0.00 0.00 43 1014.2
20260906103621 81 271 10.4 13.0 0.00 0.00 0.00 44 1014.6
20260906103118 82 295 10.4 12.2 0.00 0.00 0.00 45 1014.2
20260906102618 82 256 2.6 2.6 0.00 0.00 0.00 45 1014.6
20260906102118 81 241 6.1 8.7 0.00 0.00 0.00 44 1014.6
20260906101618 82 285 8.7 13.9 0.00 0.00 0.00 43 1014.6
20260906101118 82 248 4.3 6.1 0.00 0.00 0.00 43 1014.6
20260906100618 82 267 8.7 13.0 0.00 0.00 0.00 42 1014.6
20260906100118 82 234 6.1 8.7 0.00 0.00 0.00 43 1014.9
20260906095618 81 231 5.2 7.0 0.00 0.00 0.00 43 1014.6
20260906095118 81 274 11.3 14.8 0.00 0.00 0.00 45 1014.9
20260906094618 82 288 6.1 7.0 0.00 0.00 0.00 39 1014.9
20260906094118 82 6 9.6 11.3 0.00 0.00 0.00 39 1014.9
20260906093618 82 290 6.1 7.8 0.00 0.00 0.00 36 1014.6
20260906093119 81 291 7.8 9.6 0.00 0.00 0.00 43 1014.9
20260906092618 81 241 7.8 13.9 0.00 0.00 0.00 39 1014.6
20260906092118 81 257 6.1 8.7 0.00 0.00 0.00 36 1014.6
20260906091619 80 286 10.4 13.9 0.00 0.00 0.00 42 1014.9
20260906091118 80 319 10.4 12.2 0.00 0.00 0.00 41 1014.9
20260906090618 80 344 6.1 7.8 0.00 0.00 0.00 41 1014.9
20260906090118 79 103 4.3 6.1 0.00 0.00 0.00 46 1014.9
20260906085618 79 303 12.2 17.4 0.00 0.00 0.00 47 1015.2
20260906085118 80 255 4.3 5.2 0.00 0.00 0.00 45 1014.9
20260906084619 79 315 8.7 11.3 0.00 0.00 0.00 48 1015.2
20260906084118 79 288 7.8 9.6 0.00 0.00 0.00 47 1015.2
20260906083618 79 289 5.2 6.1 0.00 0.00 0.00 48 1015.2
20260906083118 79 274 9.6 12.2 0.00 0.00 0.00 45 1015.2
20260906082619 78 264 3.5 5.2 0.00 0.00 0.00 47 1014.9
20260906082118 78 280 8.7 11.3 0.00 0.00 0.00 47 1015.2
20260906081618 78 15 3.5 4.3 0.00 0.00 0.00 50 1015.2
20260906081118 77 286 7.0 9.6 0.00 0.00 0.00 54 1015.2
20260906080618 77 293 7.8 12.2 0.00 0.00 0.00 55 1015.2
20260906080118 78 246 6.1 7.8 0.00 0.00 0.00 53 1015.2
20260906075618 77 234 6.1 7.8 0.00 0.00 0.00 51 1015.2
20260906075120 76 266 9.6 12.2 0.00 0.00 0.00 56 1015.2
20260906074618 76 281 7.8 9.6 0.00 0.00 0.00 57 1015.2
20260906074118 76 230 4.3 4.3 0.00 0.00 0.00 58 1015.2
20260906073618 76 279 7.0 9.6 0.00 0.00 0.00 57 1015.6
20260906073118 76 203 8.7 12.2 0.00 0.00 0.00 57 1015.2
20260906072618 75 273 6.1 7.8 0.00 0.00 0.00 59 1015.2
20260906072118 75 289 6.1 8.7 0.00 0.00 0.00 60 1015.2
20260906071618 75 268 7.0 11.3 0.00 0.00 0.00 62 1015.2
20260906071118 75 258 5.2 7.0 0.00 0.00 0.00 60 1015.6
20260906070619 74 262 2.6 5.2 0.00 0.00 0.00 65 1015.6
20260906070118 74 268 2.6 4.3 0.00 0.00 0.00 66 1015.2
20260906065618 73 281 5.2 7.0 0.00 0.00 0.00 67 1015.6
20260906065118 73 260 6.1 8.7 0.00 0.00 0.00 66 1015.2
20260906064618 73 284 3.5 7.0 0.00 0.00 0.00 67 1015.2
20260906064118 73 289 6.1 9.6 0.00 0.00 0.00 68 1015.2
20260906063618 72 270 6.1 8.7 0.00 0.00 0.00 68 1015.6
20260906063118 72 246 6.1 7.8 0.00 0.00 0.00 69 1015.2
20260906062620 72 279 6.1 7.8 0.00 0.00 0.00 70 1015.2
20260906062118 72 258 6.1 7.8 0.00 0.00 0.00 70 1015.6
20260906061619 72 280 4.3 5.2 0.00 0.00 0.00 70 1015.2
20260906061118 72 316 5.2 7.8 0.00 0.00 0.00 70 1014.9
20260906060617 72 165 5.2 7.8 0.00 0.00 0.00 69 1015.2
20260906060118 72 291 7.0 13.0 0.00 0.00 0.00 70 1015.2
20260906055618 71 284 6.1 7.8 0.00 0.00 0.00 71 1015.2
20260906055118 71 248 3.5 6.1 0.00 0.00 0.00 73 1014.9
20260906054618 71 203 2.6 2.6 0.00 0.00 0.00 71 1014.6
20260906054118 71 281 4.3 5.2 0.00 0.00 0.00 71 1014.9
20260906053618 71 36 3.5 4.3 0.00 0.00 0.00 71 1014.9
20260906053118 70 302 5.2 6.1 0.00 0.00 0.00 74 1014.9
20260906052618 70 283 3.5 5.2 0.00 0.00 0.00 74 1014.9
20260906052120 70 136 1.7 1.7 0.00 0.00 0.00 76 1014.9
20260906051618 69 277 1.7 1.7 0.00 0.00 0.00 77 1014.6
20260906051118 69 254 1.7 1.7 0.00 0.00 0.00 79 1014.9
20260906050618 68 317 7.0 11.3 0.00 0.00 0.00 80 1014.9
20260906050118 68 275 9.6 12.2 0.00 0.00 0.00 81 1014.9
20260906045618 68 244 4.3 6.1 0.00 0.00 0.00 82 1014.9
20260906045118 68 229 2.6 4.3 0.00 0.00 0.00 83 1014.9
20260906044618 68 303 8.7 12.2 0.00 0.00 0.00 82 1014.9
20260906044118 68 123 3.5 5.2 0.00 0.00 0.00 83 1014.6
20260906043618 67 255 2.6 4.3 0.00 0.00 0.00 85 1014.6
20260906043118 67 277 5.2 6.1 0.00 0.00 0.00 86 1014.6
20260906042619 67 247 3.5 4.3 0.00 0.00 0.00 86 1014.6
20260906042118 66 229 3.5 4.3 0.00 0.00 0.00 87 1014.6
20260906041618 66 294 2.6 4.3 0.00 0.00 0.00 87 1014.6
20260906041118 66 285 3.5 5.2 0.00 0.00 0.00 88 1014.6
20260906040618 65 275 3.5 4.3 0.00 0.00 0.00 88 1014.6
20260906040118 65 258 2.6 4.3 0.00 0.00 0.00 88 1014.6
20260906035619 64 247 1.7 1.7 0.00 0.00 0.00 89 1014.9
20260906035118 64 271 1.7 2.6 0.00 0.00 0.00 90 1014.6
20260906034618 64 35 0.0 0.9 0.00 0.00 0.00 90 1014.6
20260906034118 64 287 2.6 4.3 0.00 0.00 0.00 91 1014.6
20260906033618 64 266 0.9 0.9 0.00 0.00 0.00 91 1014.9
20260906033118 64 272 0.9 0.9 0.00 0.00 0.00 91 1014.6
20260906032620 64 269 1.7 1.7 0.00 0.00 0.00 91 1014.6
20260906032118 64 284 4.3 5.2 0.00 0.00 0.00 91 1014.2
20260906031618 64 277 4.3 4.3 0.00 0.00 0.00 91 1014.6
20260906031118 64 300 0.0 0.0 0.00 0.00 0.00 91 1014.2
20260906030620 64 256 1.7 1.7 0.00 0.00 0.00 90 1014.2
20260906030118 64 255 0.9 0.9 0.00 0.00 0.00 90 1014.2
20260906025618 64 264 1.7 1.7 0.00 0.00 0.00 90 1014.2
20260906025118 65 284 2.6 2.6 0.00 0.00 0.00 89 1014.2
20260906024619 65 255 2.6 4.3 0.00 0.00 0.00 88 1014.2
20260906024119 65 355 2.6 2.6 0.00 0.00 0.00 88 1014.2
20260906023618 65 279 2.6 4.3 0.00 0.00 0.00 88 1014.2
20260906023119 65 37 2.6 4.3 0.00 0.00 0.00 87 1014.2
20260906022626 65 306 2.6 2.6 0.00 0.00 0.00 87 1014.2
20260906022119 65 261 4.3 5.2 0.00 0.00 0.00 88 1014.2
20260906021618 65 40 0.9 0.9 0.00 0.00 0.00 87 1013.9
20260906021119 65 299 2.6 2.6 0.00 0.00 0.00 88 1014.2
20260906020618 65 288 2.6 2.6 0.00 0.00 0.00 89 1013.9
20260906020118 65 102 0.9 1.7 0.00 0.00 0.00 88 1013.9
20260906015619 65 279 0.9 1.7 0.00 0.00 0.00 88 1014.2
20260906015119 65 357 0.0 0.9 0.00 0.00 0.00 88 1013.9
20260906014619 65 275 3.5 4.3 0.00 0.00 0.00 87 1013.9
20260906014119 65 285 3.5 6.1 0.00 0.00 0.00 86 1013.9
20260906013618 65 276 5.2 6.1 0.00 0.00 0.00 87 1013.9
20260906013118 65 40 2.6 1.7 0.00 0.00 0.00 87 1013.9
20260906012618 66 238 0.0 0.9 0.00 0.00 0.00 88 1013.9
20260906012118 66 55 1.7 2.6 0.00 0.00 0.00 88 1013.9
20260906011618 66 4 1.7 1.7 0.00 0.00 0.00 88 1013.9
20260906011118 66 83 3.5 4.3 0.00 0.00 0.00 87 1013.9
20260906010618 66 241 0.9 1.7 0.00 0.00 0.00 86 1013.9
20260906010118 66 156 2.6 5.2 0.00 0.00 0.00 86 1013.9
20260906005618 66 52 6.1 7.8 0.00 0.00 0.00 87 1013.9
20260906005118 66 249 2.6 2.6 0.00 0.00 0.00 86 1013.9
20260906004618 66 269 5.2 7.0 0.00 0.00 0.00 87 1013.9
20260906004119 66 259 6.1 7.0 0.00 0.00 0.00 87 1013.5
20260906003618 66 256 10.4 13.9 0.00 0.00 0.00 88 1013.9
20260906003119 66 245 5.2 7.0 0.00 0.00 0.00 88 1013.9
20260906002619 66 266 6.1 7.8 0.00 0.00 0.00 88 1013.9
20260906002124 66 294 5.2 7.0 0.00 0.00 0.00 88 1013.9
20260906001618 66 290 3.5 5.2 0.00 0.00 0.00 88 1014.2
20260906001118 66 262 4.3 7.0 0.00 0.00 0.00 89 1013.9
20260906000618 66 215 4.3 7.8 0.00 0.00 0.00 89 1014.2
20260906000118 66 293 7.8 11.3 0.00 0.00 0.00 89 1013.9
20260905235618 66 292 3.5 5.2 0.00 0.00 0.00 88 1014.2
20260905235118 66 296 3.5 5.2 0.00 0.00 0.00 88 1013.9
20260905234618 66 238 6.1 7.0 0.00 0.00 0.00 87 1013.9
20260905234118 66 192 3.5 4.3 0.00 0.00 0.00 87 1013.9
20260905233619 66 307 3.5 4.3 0.00 0.00 0.00 87 1014.2
20260905233120 66 229 1.7 1.7 0.00 0.00 0.00 86 1013.9
20260905232618 66 253 2.6 4.3 0.00 0.00 0.00 87 1013.9
20260905232119 66 282 4.3 7.0 0.00 0.00 0.00 87 1014.2
20260905231618 66 268 3.5 4.3 0.00 0.00 0.00 87 1013.9
20260905231118 66 69 3.5 4.3 0.00 0.00 0.00 87 1013.9
20260905230619 66 272 3.5 4.3 0.00 0.00 0.00 87 1014.2
20260905230118 66 219 1.7 1.7 0.00 0.00 0.00 86 1014.2
20260905225618 66 291 2.6 5.2 0.00 0.00 0.00 85 1014.2
20260905225118 66 292 4.3 6.1 0.00 0.00 0.00 83 1014.2
20260905224618 66 251 5.2 8.7 0.00 0.00 0.00 81 1014.2
20260905224118 66 311 7.0 7.8 0.00 0.00 0.00 82 1014.2
20260905223618 66 260 1.7 2.6 0.00 0.00 0.00 83 1013.9
20260905223118 66 297 3.5 7.0 0.00 0.00 0.00 85 1013.9
20260905222619 66 254 2.6 2.6 0.00 0.00 0.00 86 1014.2
20260905222118 66 273 2.6 2.6 0.00 0.00 0.00 86 1014.6
20260905221618 66 243 2.6 2.6 0.00 0.00 0.00 86 1014.2
20260905221118 66 283 2.6 2.6 0.00 0.00 0.00 86 1014.6
20260905220619 66 270 6.1 8.7 0.00 0.00 0.00 86 1014.6
20260905220118 66 272 2.6 2.6 0.00 0.00 0.00 86 1014.6
20260905215618 66 286 3.5 4.3 0.00 0.00 0.00 85 1014.6
20260905215118 66 182 3.5 4.3 0.00 0.00 0.00 85 1014.9
20260905214618 66 301 5.2 7.0 0.00 0.00 0.00 84 1014.9
20260905214118 67 251 5.2 6.1 0.00 0.00 0.00 82 1014.9
20260905213618 67 235 1.7 1.7 0.00 0.00 0.00 81 1014.9
20260905213118 66 344 4.3 6.1 0.00 0.00 0.00 81 1014.9
20260905212618 66 279 6.1 7.8 0.00 0.00 0.00 85 1014.6
20260905212118 66 284 0.9 0.9 0.00 0.00 0.00 86 1014.9
20260905211618 66 278 0.9 0.9 0.00 0.00 0.00 87 1014.9
20260905211118 66 264 0.9 0.9 0.00 0.00 0.00 88 1015.2
20260905210619 66 290 3.5 4.3 0.00 0.00 0.00 89 1015.2
20260905210118 66 250 0.9 1.7 0.00 0.00 0.00 89 1015.2
20260905205618 66 276 3.5 4.3 0.00 0.00 0.00 89 1015.2
20260905205118 66 286 3.5 4.3 0.00 0.00 0.00 89 1014.9
20260905204618 66 271 2.6 5.2 0.00 0.00 0.00 89 1015.2
20260905204118 66 278 5.2 7.0 0.00 0.00 0.00 89 1015.2
20260905203618 66 326 1.7 1.7 0.00 0.00 0.00 88 1015.2
20260905203118 66 277 3.5 4.3 0.00 0.00 0.00 88 1015.2
20260905202618 66 248 4.3 7.0 0.00 0.00 0.00 88 1015.2
20260905202118 66 263 5.2 7.0 0.00 0.00 0.00 88 1015.2
20260905201618 66 283 4.3 5.2 0.00 0.00 0.00 88 1015.2
20260905201118 66 276 3.5 4.3 0.00 0.00 0.00 88 1015.2
20260905200618 66 272 1.7 2.6 0.00 0.00 0.00 89 1015.2
20260905200118 66 249 2.6 4.3 0.00 0.00 0.00 88 1015.2
20260905195619 66 273 3.5 4.3 0.00 0.00 0.00 88 1014.9
20260905195118 66 273 3.5 4.3 0.00 0.00 0.00 88 1015.2
20260905194620 67 291 4.3 7.0 0.00 0.00 0.00 88 1015.2
20260905194118 67 138 4.3 7.8 0.00 0.00 0.00 88 1015.2
20260905193618 67 258 6.1 7.0 0.00 0.00 0.00 88 1014.9
20260905193118 67 282 4.3 6.1 0.00 0.00 0.00 87 1014.9
20260905192618 67 250 3.5 6.1 0.00 0.00 0.00 87 1015.2
20260905192118 67 304 6.1 7.0 0.00 0.00 0.00 87 1015.2
20260905191618 67 240 1.7 5.2 0.00 0.00 0.00 86 1015.2
20260905191120 67 282 2.6 4.3 0.00 0.00 0.00 86 1015.2
20260905190618 67 276 3.5 4.3 0.00 0.00 0.00 85 1015.2
20260905190118 67 271 6.1 8.7 0.00 0.00 0.00 85 1015.2
20260905185618 67 244 2.6 2.6 0.00 0.00 0.00 85 1015.2
20260905185119 67 315 7.0 8.7 0.00 0.00 0.00 84 1015.2
20260905184618 68 274 6.1 7.8 0.00 0.00 0.00 83 1015.2
20260905184118 68 291 7.8 9.6 0.00 0.00 0.00 83 1015.2
20260905183618 68 282 4.3 7.8 0.00 0.00 0.00 81 1015.2
20260905183118 68 281 5.2 7.8 0.00 0.00 0.00 81 1015.2
20260905182618 68 250 4.3 7.0 0.00 0.00 0.00 80 1015.2
20260905182118 68 291 2.6 2.6 0.00 0.00 0.00 80 1015.2
20260905181618 68 288 4.3 6.1 0.00 0.00 0.00 79 1015.2
20260905181118 68 276 2.6 4.3 0.00 0.00 0.00 79 1015.2
20260905180618 68 275 2.6 2.6 0.00 0.00 0.00 79 1015.2
20260905180119 68 280 2.6 2.6 0.00 0.00 0.00 79 1014.9
20260905175618 68 254 7.0 9.6 0.00 0.00 0.00 79 1014.9
20260905175119 69 234 3.5 5.2 0.00 0.00 0.00 79 1015.2
20260905174618 69 273 6.1 7.8 0.00 0.00 0.00 78 1014.9
20260905174118 69 266 3.5 5.2 0.00 0.00 0.00 77 1014.9
20260905173619 69 220 6.1 7.0 0.00 0.00 0.00 76 1015.2
20260905173118 69 301 6.1 7.8 0.00 0.00 0.00 75 1014.9
20260905172618 69 252 2.6 2.6 0.00 0.00 0.00 73 1014.6
20260905172118 70 260 4.3 6.1 0.00 0.00 0.00 73 1014.9
20260905171618 70 258 3.5 5.2 0.00 0.00 0.00 71 1014.6
20260905171118 70 300 2.6 4.3 0.00 0.00 0.00 72 1014.9
20260905170619 70 266 3.5 6.1 0.00 0.00 0.00 72 1014.6
20260905170118 70 259 4.3 6.1 0.00 0.00 0.00 71 1014.9
20260905165619 70 247 4.3 5.2 0.00 0.00 0.00 71 1014.2
20260905165119 70 237 7.8 9.6 0.00 0.00 0.00 70 1014.6
20260905164619 71 240 6.1 7.0 0.00 0.00 0.00 70 1014.6
20260905164118 71 281 3.5 5.2 0.00 0.00 0.00 69 1014.6
20260905163618 71 234 4.3 5.2 0.00 0.00 0.00 69 1014.2
20260905163118 71 314 6.1 7.8 0.00 0.00 0.00 69 1014.6
20260905162619 71 219 4.3 6.1 0.00 0.00 0.00 68 1014.2
20260905162119 72 276 7.8 9.6 0.00 0.00 0.00 66 1014.6
20260905161619 72 261 2.6 4.3 0.00 0.00 0.00 65 1014.2
20260905161121 72 277 6.1 7.8 0.00 0.00 0.00 64 1014.6
20260905160618 73 257 4.3 6.1 0.00 0.00 0.00 63 1014.6
20260905160118 73 274 5.2 8.7 0.00 0.00 0.00 61 1014.6
20260905155618 73 11 4.3 5.2 0.00 0.00 0.00 60 1014.6
20260905155118 74 273 6.1 7.8 0.00 0.00 0.00 59 1014.6
20260905154618 74 278 8.7 13.0 0.00 0.00 0.00 56 1014.6
20260905154119 75 261 4.3 5.2 0.00 0.00 0.00 55 1014.6
20260905153618 75 274 7.8 9.6 0.00 0.00 0.00 55 1014.2
20260905153119 75 309 6.1 8.7 0.00 0.00 0.00 55 1014.6
20260905152619 76 273 5.2 6.1 0.00 0.00 0.00 53 1014.2
20260905152118 76 265 6.1 11.3 0.00 0.00 0.00 53 1014.2
20260905151618 76 252 7.0 9.6 0.00 0.00 0.00 52 1014.6
20260905151119 77 262 7.8 13.9 0.00 0.00 0.00 52 1014.2
20260905150619 77 298 5.2 6.1 0.00 0.00 0.00 51 1014.6
20260905150120 77 270 4.3 6.1 0.00 0.00 0.00 51 1014.2
20260905145618 77 234 4.3 7.8 0.00 0.00 0.00 51 1014.6
20260905145119 77 244 7.0 7.8 0.00 0.00 0.00 51 1014.6
20260905144626 78 251 3.5 4.3 0.00 0.00 0.00 51 1014.6
20260905144118 78 262 7.0 9.6 0.00 0.00 0.00 52 1014.2
20260905143619 78 284 3.5 5.2 0.00 0.00 0.00 52 1014.2
20260905143119 78 249 4.3 5.2 0.00 0.00 0.00 51 1014.2
20260905142619 78 225 5.2 7.0 0.00 0.00 0.00 51 1014.6
20260905142119 78 264 7.8 13.0 0.00 0.00 0.00 51 1014.6
20260905141618 79 267 4.3 13.0 0.00 0.00 0.00 49 1014.2
20260905141118 79 132 5.2 9.6 0.00 0.00 0.00 51 1014.2
20260905140618 79 280 4.3 7.0 0.00 0.00 0.00 51 1014.2
20260905140118 79 286 6.1 7.8 0.00 0.00 0.00 51 1014.2
20260905135618 79 83 4.3 7.0 0.00 0.00 0.00 51 1014.2
20260905135118 80 301 3.5 7.0 0.00 0.00 0.00 52 1014.6
20260905134618 80 245 5.2 7.8 0.00 0.00 0.00 52 1014.2
20260905134118 80 276 6.1 7.8 0.00 0.00 0.00 52 1014.2
20260905133618 80 17 5.2 7.8 0.00 0.00 0.00 52 1014.2
20260905133119 80 260 5.2 6.1 0.00 0.00 0.00 52 1014.2
20260905132128 80 308 5.2 6.1 0.00 0.00 0.00 53 1014.2
20260905131618 80 247 3.5 4.3 0.00 0.00 0.00 53 1014.6
20260905131119 80 318 3.5 6.1 0.00 0.00 0.00 51 1014.6
20260905130618 80 219 7.8 9.6 0.00 0.00 0.00 52 1014.2
20260905130120 81 276 10.4 12.2 0.00 0.00 0.00 51 1014.6
20260905125618 81 269 7.0 9.6 0.00 0.00 0.00 50 1014.6